[[{"header":{"parameterUnit":"m.s-1","parameterCategory":1,"la1":30.2991,"la2":30.254,"lo1":-89.0895,"lo2":-89.0444,"dy":0.0017,"dx":0.0017,"nx":28,"ny":28,"refTime":"2023-08-23T21:00:00:Z","depth":0,"parameterNumber":2,"parameterNumberName":"U-component_of_WINDS"},"data":[0,0,0,0,0,0,0,0,0,0,0,0,0,0,0,0,0,0,0,0,0,0,0,0,0,0,0,0,0,0,0,0,0,0,0,0,0,0,0,0,0,0,0,0,0,0,0,0,0,0,0,0,0,0,0,0,0,0,0.1768,0.1769,0,0.1858,0.1859,0.186,0.192,0.192,0.192,0.1921,0.2013,0.2015,0.2017,0,0,0,0,0,0,0,0,0,0,0,0,0,0.1646,0.1648,0.1768,0.1769,0.177,0.1858,0.1859,0.1861,0.1919,0.192,0.192,0.1921,0.2013,0.2015,0.2018,0,0,0,0,0,0,0,0,0,0,0,0,0,0.1714,0.1649,0.1767,0.181,0.1815,0.1858,0.1859,0.1861,0.1919,0.192,0.1921,0.1921,0.2012,0.2015,0.2018,0.2026,0,0,0.2028,0.2029,0,0,0,0,0,0,0,0,0.171,0.1718,0.1803,0.1807,0.1812,0.1878,0.185,0.1916,0.1919,0.188,0.1921,0.1921,0.1968,0.1975,0.199,0.203,0.2034,0.2028,0.203,0.2031,0.2032,0,0,0,0,0,0,0,0.1705,0.1715,0.1804,0.1804,0.181,0.1825,0.1835,0.1863,0.1919,0.1883,0.1888,0.1898,0.1971,0.1987,0.1993,0.2036,0.2028,0.2031,0.2033,0.2034,0.2087,0.2086,0,0,0,0,0,0,0.1694,0.171,0.1801,0.1806,0.1762,0.1826,0.1838,0.1856,0.1919,0.1929,0.1897,0.19,0.1982,0.1989,0.1996,0.201,0.2031,0.2034,0.2036,0.2087,0.2087,0.2086,0,0,0,0,0,0,0.1691,0.1701,0.1797,0.176,0.1773,0.1828,0.1848,0.1858,0.1875,0.193,0.194,0.1903,0.1982,0.1992,0.2018,0.2014,0.2036,0.2038,0.2088,0.2087,0.2087,0.2036,0,0,0,0,0,0,0.1687,0.17,0.1703,0.1759,0.1775,0.1817,0.1848,0.1859,0.188,0.1885,0.1939,0.1948,0.1983,0.2013,0.2021,0.2019,0.2041,0.2089,0.2088,0.2087,0.2039,0.2034,0.203,0,0,0,0,0,0.1683,0.1686,0.1703,0.1714,0.178,0.1816,0.1825,0.1866,0.1879,0.1883,0.1919,0.1946,0.2013,0.2015,0.2025,0.2023,0.2089,0.2088,0.2087,0.204,0.2035,0.203,0,0,0,0,0,0,0.1627,0.1694,0.1714,0.1735,0.177,0.1826,0.1832,0.1859,0.189,0.1893,0.1943,0.1954,0.1976,0.2002,0.2004,0.2034,0.2054,0.2055,0.2016,0.2011,0.2007,0.1999,0.2044,0,0,0,0,0,0.1618,0.1642,0.1698,0.1711,0.1728,0.1777,0.1794,0.1823,0.1861,0.1876,0.1913,0.1949,0.1978,0.1996,0.2026,0.2043,0.2056,0.2047,0.2042,0.2039,0.2038,0.2049,0.2046,0.2083,0.2083,0.2083,0,0,0.1598,0.1637,0.1649,0.1701,0.1732,0.1755,0.1789,0.1813,0.1831,0.1879,0.1906,0.1935,0.1978,0.2,0.2011,0.2023,0.2031,0.2037,0.2034,0.2036,0.2048,0.2044,0.2041,0.2082,0.2082,0.2082,0,0,0.1573,0.1606,0.162,0.165,0.1695,0.1728,0.1731,0.1784,0.1805,0.1833,0.187,0.1893,0.1942,0.1971,0.1993,0.198,0.2006,0.1988,0.1966,0.1976,0.1973,0.197,0.1966,0.1963,0.1988,0.1988,0.1988,0,0.1543,0.158,0.1624,0.1645,0.1667,0.1713,0.1728,0.1755,0.1807,0.1821,0.1834,0.1897,0.1929,0.1958,0.1955,0.1971,0.1976,0.1982,0.197,0.1968,0.1966,0.1962,0.196,0.1986,0.1986,0.1986,0.1986,0,0.154,0.1565,0.1571,0.1621,0.1644,0.1662,0.1709,0.1726,0.1753,0.1785,0.1813,0.1853,0.1892,0.1901,0.1928,0.1934,0.194,0.196,0.1981,0.1959,0.1956,0.1955,0.1982,0.1983,0.1984,0.1984,0,0,0.1482,0.1556,0.1558,0.1581,0.1635,0.1655,0.1676,0.1714,0.1728,0.1763,0.1781,0.1822,0.1842,0.1866,0.1896,0.1905,0.1892,0.1924,0.1926,0.1916,0.1901,0.1885,0.1882,0.191,0.191,0.191,0.1898,0,0.1465,0.1503,0.1544,0.1568,0.1592,0.1636,0.1654,0.1689,0.1719,0.1744,0.1778,0.1806,0.183,0.1844,0.1855,0.1891,0.1889,0.1893,0.1927,0.1928,0.1914,0.1881,0.1864,0.185,0.1897,0.1897,0.1896,0,0.145,0.1483,0.1509,0.1561,0.1573,0.1588,0.1626,0.165,0.1691,0.1712,0.1739,0.1772,0.1795,0.1814,0.1848,0.1849,0.1866,0.1886,0.1886,0.189,0.191,0.1883,0.1846,0.1844,0.1895,0.1895,0.1895,0,0.1404,0.1455,0.1478,0.1497,0.1558,0.1567,0.1594,0.1635,0.1655,0.1689,0.1703,0.1739,0.1759,0.1786,0.1827,0.1837,0.1856,0.1879,0.1875,0.1873,0.1876,0.1875,0.184,0.1888,0.1888,0.1888,0.1888,0,0.138,0.1394,0.1458,0.1472,0.1489,0.1536,0.1552,0.1582,0.1619,0.164,0.1681,0.1699,0.1753,0.1778,0.181,0.1833,0.1842,0.186,0.1868,0.1855,0.1853,0.1866,0.1868,0.1887,0.1887,0.1888,0.1888,0,0.1331,0.1374,0.1402,0.1458,0.1473,0.1483,0.1531,0.1546,0.1579,0.1605,0.1613,0.1665,0.1697,0.1741,0.1786,0.1808,0.1826,0.184,0.1811,0.1816,0.1809,0.1809,0.1781,0.178,0.1829,0.1828,0.1828,0,0.1312,0.1324,0.1382,0.1399,0.1423,0.145,0.1471,0.1518,0.1538,0.1586,0.1596,0.163,0.166,0.1709,0.175,0.1785,0.18,0.1788,0.1805,0.1792,0.1799,0.1797,0.1798,0.1783,0.1782,0.1781,0.1781,0,0.1274,0.1295,0.1324,0.1361,0.1385,0.1416,0.1449,0.146,0.1515,0.1536,0.1568,0.1592,0.1638,0.1672,0.1712,0.1739,0.1769,0.1775,0.1776,0.1763,0.1746,0.1754,0.1799,0.1775,0.1776,0.1776,0.1777,0.1777,0.124,0.1252,0.1295,0.1326,0.1356,0.1386,0.1403,0.1438,0.1466,0.1507,0.1534,0.1565,0.1606,0.1664,0.169,0.1715,0.1727,0.1728,0.1729,0.1728,0.1723,0.1742,0.1723,0.1723,0.1723,0.1724,0.1724,0,0.1203,0.1233,0.1261,0.1306,0.133,0.1357,0.1395,0.1413,0.144,0.1476,0.1505,0.1543,0.1576,0.1621,0.1657,0.1669,0.1684,0.1677,0.1676,0.1682,0.1711,0.1706,0.1665,0.1665,0.1665,0.1665,0.1665,0.1665,0.1187,0.121,0.1236,0.1274,0.1304,0.1335,0.1354,0.1382,0.1412,0.1452,0.1479,0.1509,0.1548,0.1588,0.162,0.1632,0.1644,0.1632,0.1649,0.1675,0.168,0.1685,0.1681,0.1635,0.1635,0.1618,0.1618,0.1618]},{"header":{"parameterUnit":"m.s-1","parameterCategory":1,"la1":30.2991,"la2":30.254,"lo1":-89.0895,"lo2":-89.0444,"dy":0.0017,"dx":0.0017,"nx":28,"ny":28,"refTime":"2023-08-23T21:00:00:Z","depth":0,"parameterNumber":3,"parameterNumberName":"V-component_of_WINDS"},"data":[0,0,0,0,0,0,0,0,0,0,0,0,0,0,0,0,0,0,0,0,0,0,0,0,0,0,0,0,0,0,0,0,0,0,0,0,0,0,0,0,0,0,0,0,0,0,0,0,0,0,0,0,0,0,0,0,0,0,1.8325,1.8324,0,1.8262,1.8261,1.8261,1.8223,1.8223,1.8223,1.8222,1.8153,1.8151,1.815,0,0,0,0,0,0,0,0,0,0,0,0,0,1.8409,1.8408,1.8325,1.8324,1.8323,1.8262,1.8261,1.826,1.8223,1.8223,1.8223,1.8222,1.8153,1.8151,1.8149,0,0,0,0,0,0,0,0,0,0,0,0,0,1.8362,1.8407,1.8325,1.8298,1.8294,1.8262,1.8261,1.826,1.8223,1.8223,1.8223,1.8222,1.8154,1.8152,1.8149,1.8138,0,0,1.8141,1.814,0,0,0,0,0,0,0,0,1.8364,1.8359,1.8302,1.8299,1.8296,1.825,1.8265,1.8219,1.8223,1.825,1.8222,1.8222,1.8185,1.818,1.8168,1.8135,1.8132,1.8141,1.8139,1.8138,1.8138,0,0,0,0,0,0,0,1.8368,1.8361,1.83,1.8302,1.8298,1.8287,1.828,1.8256,1.8219,1.8248,1.8245,1.8238,1.8183,1.8171,1.8167,1.8131,1.8141,1.8139,1.8137,1.8136,1.8085,1.8085,0,0,0,0,0,0,1.8376,1.8364,1.8302,1.8298,1.833,1.8286,1.8278,1.8265,1.822,1.8213,1.8238,1.8237,1.8176,1.817,1.8164,1.8148,1.8138,1.8136,1.8135,1.8085,1.8085,1.8085,0,0,0,0,0,0,1.8378,1.8371,1.8304,1.833,1.8321,1.8285,1.827,1.8264,1.8252,1.8213,1.8205,1.8233,1.8175,1.8168,1.8145,1.8145,1.8135,1.8132,1.8085,1.8085,1.8085,1.8116,0,0,0,0,0,0,1.8381,1.8372,1.8368,1.8331,1.832,1.8288,1.827,1.8263,1.8248,1.8245,1.8206,1.8199,1.8174,1.8149,1.8143,1.8141,1.813,1.8085,1.8085,1.8085,1.8115,1.8118,1.812,0,0,0,0,0,1.8384,1.8378,1.8368,1.8361,1.8315,1.8288,1.8282,1.8255,1.8248,1.8243,1.8219,1.82,1.8147,1.8147,1.814,1.8138,1.8084,1.8085,1.8085,1.8114,1.8117,1.812,0,0,0,0,0,0,1.8414,1.8372,1.8361,1.8343,1.832,1.8282,1.8275,1.8259,1.8235,1.8233,1.82,1.8191,1.8172,1.8153,1.8154,1.8125,1.8113,1.8112,1.8138,1.8141,1.8143,1.8148,1.8128,0,0,0,0,0,1.8419,1.8403,1.8366,1.8354,1.8343,1.8312,1.8299,1.8281,1.8254,1.8243,1.8217,1.819,1.8168,1.8153,1.813,1.8113,1.8103,1.8108,1.811,1.8112,1.8111,1.8101,1.8102,1.8087,1.8087,1.8087,0,0,1.8428,1.8404,1.8395,1.836,1.8339,1.8322,1.8303,1.8285,1.8271,1.824,1.8218,1.8198,1.8166,1.8146,1.8136,1.8129,1.8114,1.8113,1.8115,1.8112,1.8101,1.8103,1.8104,1.8087,1.8087,1.8087,0,0,1.8436,1.8416,1.8404,1.8385,1.8355,1.8334,1.8332,1.8297,1.8283,1.826,1.8237,1.822,1.8181,1.816,1.8144,1.8146,1.8128,1.814,1.8151,1.8142,1.8143,1.8144,1.8144,1.8145,1.8139,1.8139,1.8139,0,1.8451,1.8425,1.84,1.8383,1.8369,1.8342,1.8329,1.8311,1.8275,1.8264,1.8258,1.821,1.8187,1.8162,1.8163,1.8151,1.8146,1.8143,1.8145,1.8146,1.8146,1.8146,1.8146,1.8141,1.814,1.814,1.814,0,1.8445,1.8427,1.8421,1.8389,1.8373,1.8358,1.833,1.8317,1.8301,1.8281,1.8258,1.823,1.8201,1.8194,1.8177,1.8167,1.8164,1.8152,1.8139,1.815,1.8149,1.8149,1.8143,1.8142,1.8142,1.8141,0,0,1.8468,1.8424,1.8422,1.8407,1.8374,1.8359,1.8343,1.8317,1.8306,1.8283,1.8268,1.8237,1.8227,1.8209,1.8189,1.8181,1.8184,1.817,1.8168,1.8173,1.8171,1.818,1.8181,1.8173,1.8173,1.8173,1.8174,0,1.847,1.8443,1.842,1.84,1.8383,1.8359,1.8345,1.8323,1.8304,1.8286,1.8264,1.8243,1.823,1.8219,1.821,1.8186,1.8184,1.8186,1.8158,1.8157,1.8166,1.818,1.8189,1.8191,1.8174,1.8174,1.8173,0,1.8469,1.8449,1.8428,1.8397,1.8389,1.8377,1.8352,1.8336,1.8309,1.8296,1.8278,1.8258,1.8239,1.823,1.8204,1.8206,1.8194,1.818,1.818,1.8175,1.8165,1.8175,1.8191,1.8191,1.8173,1.8173,1.8173,0,1.8488,1.8455,1.8438,1.8427,1.839,1.8383,1.8367,1.8341,1.8327,1.8304,1.8295,1.827,1.8256,1.8237,1.8211,1.8207,1.8187,1.8176,1.8175,1.8175,1.817,1.8171,1.8184,1.8164,1.8164,1.8164,1.8164,0,1.8493,1.8481,1.8447,1.8436,1.8422,1.8396,1.8382,1.8364,1.8342,1.8326,1.8304,1.829,1.8257,1.8239,1.8218,1.8199,1.8193,1.8181,1.8176,1.8183,1.8184,1.8173,1.8172,1.8164,1.8164,1.8164,1.8164,0,1.851,1.8487,1.8468,1.8436,1.8428,1.8419,1.8391,1.8379,1.836,1.8341,1.8335,1.8304,1.8282,1.8255,1.8223,1.8209,1.8192,1.8184,1.8202,1.8198,1.8198,1.8199,1.8204,1.8203,1.8185,1.8185,1.8185,0,1.8514,1.8505,1.8473,1.8462,1.8448,1.8431,1.8417,1.8391,1.8378,1.8348,1.834,1.8317,1.8297,1.8262,1.8236,1.8211,1.8202,1.8206,1.8198,1.8206,1.8201,1.8202,1.8201,1.8207,1.8208,1.8208,1.8208,0,1.8524,1.8514,1.8496,1.8474,1.8459,1.8441,1.8421,1.8413,1.8383,1.8369,1.8347,1.8332,1.8301,1.8277,1.825,1.8232,1.8215,1.8211,1.821,1.8216,1.8226,1.822,1.8206,1.8211,1.821,1.821,1.821,1.821,1.8534,1.8525,1.8502,1.8483,1.8466,1.8448,1.8436,1.8417,1.8399,1.8373,1.8358,1.8337,1.8311,1.8273,1.8257,1.8238,1.8232,1.823,1.8229,1.8229,1.8231,1.8231,1.8233,1.8233,1.8233,1.8233,1.8233,0,1.8542,1.8527,1.851,1.8484,1.8469,1.8457,1.8435,1.8422,1.8404,1.8383,1.8364,1.8339,1.8317,1.829,1.8266,1.8256,1.8248,1.8251,1.825,1.8247,1.8238,1.8241,1.8258,1.8258,1.8258,1.8258,1.8258,1.8258,1.8544,1.8528,1.8516,1.8491,1.8475,1.8455,1.8443,1.8427,1.841,1.8383,1.8366,1.8349,1.8325,1.8299,1.8278,1.8271,1.8262,1.8267,1.8258,1.8249,1.8247,1.8245,1.8248,1.8266,1.8266,1.8268,1.8268,1.8268]}]]